{"data":{"norad_id":53109,"intl_designator":"2022-080E","name":"GREENCUBE (IO-117)","alt_names":[],"object_type":"PAYLOAD","status":"ACTIVE","operator":null,"country":"IT","launch_date":"2022-07-13","launch_site_code":"FRGUI","launch_vehicle":null,"mission":null,"orbit_class":"UNKNOWN","rcs_meters":null,"size_class":null,"mass_kg":null,"dimensions":null,"purposes":["comms","tech_demo"],"wikipedia_slug":null,"has_3d_model":false,"image_url":null,"decayed_at":null,"tle_current":{"epoch":"2026-09-19T11:59:53.361888Z","epoch_age_seconds":100900,"freshness":"FRESH","line1":"1 53109U 22080E   26262.49992317 -.00000003  00000+0  00000+0 0  9994","line2":"2 53109  70.1205 265.4390 0009216 269.3094  90.6509  6.42583827 98129","mean_motion":6.42583827,"eccentricity":0.0009216,"inclination_deg":70.1205,"raan_deg":265.439,"arg_perigee_deg":269.3094,"mean_anomaly_deg":90.6509,"bstar":0,"rev_number":9812,"period_min":224.09527589931,"perigee_km":5831.8410674748,"apogee_km":5854.367259187,"semimajor_km":12221.241163331,"source":"CELESTRAK","updated_at":"2026-09-20T09:00:48.035242Z"}}}